Powrót do katalogu

OPS 4682 DEB

AktywnyPO
NORAD 18268·DEBRIS·🇺🇸 United States

Wystrzelony Apr 3, 1965 z Vandenberg Space Force Base

Loading…

Następne Przeloty (najbliższe 24 godziny)

TLE

ŚwieżeSource: Space-Track

Epoka: Sep 14, 2026, 06:55 UTC

1 18268U 65027X   26257.28862073  .00000480  00000-0  16167-2 0  9998
2 18268  90.2508   6.7302 0035713 184.9072 175.1704 12.97775209673492

Śledź OPS 4682 DEB w czasie rzeczywistym z AllMySat

Download on the App Store